FW7499 Weather Reports


Display with metric or nautical units.
time (UTC)temp
F
wind
direction
speed
MPH
gust
MPH
rain 1hr
in
rain 24hr
in
rain mn
in
humidity
%
barometer
mb
20260509175004 75 9 2.0 8.0 0.00 0.00 0.00 35 1008.8
20260509174505 75 340 1.0 6.0 0.00 0.00 0.00 31 1008.8
20260509174003 75 338 2.0 6.0 0.00 0.00 0.00 35 1008.9
20260509173507 75 74 0.0 5.0 0.00 0.00 0.00 34 1008.9
20260509173018 75 19 0.0 3.0 0.00 0.00 0.00 31 1008.9
20260509172503 75 59 1.0 5.0 0.00 0.00 0.00 35 1009.0
20260509172006 75 314 1.0 8.0 0.00 0.00 0.00 38 1009.1
20260509171515 74 323 3.0 8.0 0.00 0.00 0.00 38 1009.1
20260509171004 74 320 2.0 8.0 0.00 0.00 0.00 31 1009.1
20260509170507 74 333 2.0 5.0 0.00 0.00 0.00 32 1009.2
20260509170020 74 338 1.0 4.0 0.00 0.00 0.00 34 1009.2
20260509165502 73 319 1.0 8.0 0.00 0.00 0.00 31 1009.1
20260509165007 73 331 2.0 8.0 0.00 0.00 0.00 37 1009.1
20260509164511 73 344 3.0 6.0 0.00 0.00 0.00 33 1009.1
20260509164004 73 296 2.0 7.0 0.00 0.00 0.00 36 1009.1
20260509163505 73 305 2.0 7.0 0.00 0.00 0.00 37 1009.0
20260509163012 72 306 3.0 7.0 0.00 0.00 0.00 36 1009.0
20260509162508 72 317 2.0 9.0 0.00 0.00 0.00 35 1008.9
20260509162007 71 342 4.0 9.0 0.00 0.00 0.00 34 1009.1
20260509161519 71 349 1.0 8.0 0.00 0.00 0.00 34 1008.9
20260509161009 71 5 3.0 10.0 0.00 0.00 0.00 35 1009.0
20260509160507 71 301 3.0 10.0 0.00 0.00 0.00 35 1008.9
20260509160023 72 341 3.0 8.0 0.00 0.00 0.00 38 1009.0
20260509155509 71 326 1.0 5.0 0.00 0.00 0.00 39 1009.0
20260509155008 71 340 2.0 8.0 0.00 0.00 0.00 38 1009.0
20260509154523 70 13 2.0 12.0 0.00 0.00 0.00 39 1009.2
20260509154008 70 341 5.0 12.0 0.00 0.00 0.00 38 1009.3
20260509153504 70 341 5.0 9.0 0.00 0.00 0.00 37 1009.3
20260509153015 70 306 4.0 9.0 0.00 0.00 0.00 38 1009.1
20260509152504 70 334 0.0 11.0 0.00 0.00 0.00 40 1009.1
20260509152009 70 333 1.0 11.0 0.00 0.00 0.00 39 1009.1
20260509151519 70 342 2.0 8.0 0.00 0.00 0.00 40 1009.1
20260509151007 69 337 3.0 8.0 0.00 0.00 0.00 42 1009.1
20260509150508 68 360 4.0 13.0 0.00 0.00 0.00 42 1009.2
20260509150013 68 286 4.0 13.0 0.00 0.00 0.00 41 1008.8
20260509145509 70 355 4.0 10.0 0.00 0.00 0.00 40 1009.0
20260509145010 69 306 1.0 4.0 0.00 0.00 0.00 36 1008.1
20260509144513 69 355 0.0 4.0 0.00 0.00 0.00 40 1007.9
20260509144007 67 234 0.0 4.0 0.00 0.00 0.00 40 1007.9
20260509143509 66 297 1.0 8.0 0.00 0.00 0.00 43 1007.9
20260509143012 65 343 0.0 8.0 0.00 0.00 0.00 42 1008.0
20260509142503 65 5 0.0 7.0 0.00 0.00 0.00 44 1008.1
20260509142009 66 219 0.0 7.0 0.00 0.00 0.00 43 1008.1
20260509141530 65 285 1.0 5.0 0.00 0.00 0.00 45 1008.1
20260509141008 64 292 0.0 4.0 0.00 0.00 0.00 46 1008.1
20260509140505 65 193 0.0 2.0 0.00 0.00 0.00 45 1008.0
20260509140021 64 332 0.0 2.0 0.00 0.00 0.00 50 1008.0
20260509135507 63 332 0.0 4.0 0.00 0.00 0.00 51 1008.1
20260509135011 62 243 0.0 4.0 0.00 0.00 0.00 52 1008.1
20260509134504 60 260 0.0 2.0 0.00 0.00 0.00 54 1008.1
20260509134003 59 306 0.0 2.0 0.00 0.00 0.00 53 1008.0
20260509133503 59 320 0.0 1.0 0.00 0.00 0.00 53 1008.0
20260509133003 59 320 0.0 1.0 0.00 0.00 0.00 56 1008.0
20260509132505 59 319 0.0 2.0 0.00 0.00 0.00 61 1007.9
20260509132002 56 319 0.0 2.0 0.00 0.00 0.00 68 1007.9
20260509131508 55 321 0.0 0.0 0.00 0.00 0.00 74 1008.0
20260509131005 54 321 0.0 0.0 0.00 0.00 0.00 78 1008.0
20260509130504 54 321 0.0 0.0 0.00 0.00 0.00 78 1008.0
20260509130016 53 321 0.0 1.0 0.00 0.00 0.00 78 1007.9
20260509125509 52 321 0.0 1.0 0.00 0.00 0.00 80 1007.9
20260509125005 51 321 0.0 1.0 0.00 0.00 0.00 83 1007.9
20260509124504 50 321 0.0 1.0 0.00 0.00 0.00 84 1008.0
20260509124003 50 321 0.0 1.0 0.00 0.00 0.00 81 1008.0
20260509123503 49 321 0.0 1.0 0.00 0.00 0.00 83 1008.0
20260509123007 48 321 0.0 0.0 0.00 0.00 0.00 84 1007.9
20260509122503 48 321 0.0 0.0 0.00 0.00 0.00 81 1007.8
20260509122003 48 321 0.0 1.0 0.00 0.00 0.00 78 1007.9
20260509121505 48 321 0.0 1.0 0.00 0.00 0.00 77 1007.9
20260509121003 47 321 0.0 0.0 0.00 0.00 0.00 78 1007.9
20260509120506 46 321 0.0 0.0 0.00 0.00 0.00 79 1007.9
20260509120005 46 321 0.0 0.0 0.00 0.00 0.00 79 1007.9
20260509115506 45 321 0.0 0.0 0.00 0.00 0.00 80 1007.8
20260509115011 45 321 0.0 0.0 0.00 0.00 0.00 79 1007.7
20260509114503 45 321 0.0 0.0 0.00 0.00 0.00 79 1007.6
20260509114002 45 321 0.0 0.0 0.00 0.00 0.00 80 1007.6
20260509113503 45 321 0.0 0.0 0.00 0.00 0.00 79 1007.5
20260509113004 45 321 0.0 0.0 0.00 0.00 0.00 79 1007.6
20260509112504 45 321 0.0 0.0 0.00 0.00 0.00 78 1007.5
20260509112003 45 321 0.0 0.0 0.00 0.00 0.00 77 1007.5
20260509111508 45 321 0.0 0.0 0.00 0.00 0.00 76 1007.5
20260509111010 45 321 0.0 0.0 0.00 0.00 0.00 77 1007.4
20260509110502 45 321 0.0 0.0 0.00 0.00 0.00 78 1007.4
20260509110011 45 321 0.0 0.0 0.00 0.00 0.00 76 1007.4
20260509105503 45 321 0.0 0.0 0.00 0.00 0.00 76 1007.4
20260509105005 45 321 0.0 0.0 0.00 0.00 0.00 74 1007.5
20260509104523 46 321 0.0 0.0 0.00 0.00 0.00 74 1007.5
20260509104002 46 321 0.0 0.0 0.00 0.00 0.00 73 1007.6
20260509103505 46 321 0.0 0.0 0.00 0.00 0.00 72 1007.5
20260509103006 45 321 0.0 0.0 0.00 0.00 0.00 74 1007.5
20260509102505 45 321 0.0 0.0 0.00 0.00 0.00 74 1007.5
20260509102004 45 321 0.0 0.0 0.00 0.00 0.00 74 1007.4
20260509101504 46 321 0.0 0.0 0.00 0.00 0.00 74 1007.5
20260509101003 46 321 0.0 0.0 0.00 0.00 0.00 73 1007.4
20260509100504 46 321 0.0 0.0 0.00 0.00 0.00 73 1007.4
20260509100016 46 321 0.0 0.0 0.00 0.00 0.00 73 1007.4
20260509095504 46 321 0.0 0.0 0.00 0.00 0.00 72 1007.4
20260509095004 46 321 0.0 0.0 0.00 0.00 0.00 71 1007.4
20260509094508 47 321 0.0 0.0 0.00 0.00 0.00 70 1007.4
20260509094006 47 321 0.0 0.0 0.00 0.00 0.00 71 1007.4
20260509093503 47 321 0.0 0.0 0.00 0.00 0.00 70 1007.4
20260509093017 47 321 0.0 0.0 0.00 0.00 0.00 70 1007.4
20260509092508 47 321 0.0 0.0 0.00 0.00 0.00 70 1007.4
20260509092004 48 321 0.0 0.0 0.00 0.00 0.00 69 1007.4
20260509091513 48 321 0.0 0.0 0.00 0.00 0.00 69 1007.4
20260509091008 48 321 0.0 0.0 0.00 0.00 0.00 68 1007.4
20260509090504 48 321 0.0 0.0 0.00 0.00 0.00 67 1007.4
20260509090006 48 321 0.0 0.0 0.00 0.00 0.00 67 1007.4
20260509085503 48 321 0.0 0.0 0.00 0.00 0.00 67 1007.4
20260509085003 48 321 0.0 0.0 0.00 0.00 0.00 66 1007.4
20260509084509 49 321 0.0 0.0 0.00 0.00 0.00 66 1007.3
20260509084003 49 321 0.0 0.0 0.00 0.00 0.00 65 1007.2
20260509083509 49 321 0.0 0.0 0.00 0.00 0.00 67 1007.2
20260509083015 49 321 0.0 0.0 0.00 0.00 0.00 66 1007.2
20260509082503 49 321 0.0 0.0 0.00 0.00 0.00 65 1007.2
20260509082007 49 321 0.0 0.0 0.00 0.00 0.00 64 1007.3
20260509081512 50 321 0.0 0.0 0.00 0.00 0.00 64 1007.3
20260509081007 50 321 0.0 0.0 0.00 0.00 0.00 64 1007.3
20260509080507 50 321 0.0 0.0 0.00 0.00 0.00 63 1007.3
20260509080010 51 321 0.0 0.0 0.00 0.00 0.00 63 1007.2
20260509075506 51 321 0.0 0.0 0.00 0.00 0.00 62 1007.3
20260509075006 51 321 0.0 0.0 0.00 0.00 0.00 62 1007.4
20260509074508 51 321 0.0 0.0 0.00 0.00 0.00 61 1007.4
20260509074007 52 321 0.0 1.0 0.00 0.00 0.00 59 1007.4
20260509073503 52 321 0.0 1.0 0.00 0.00 0.00 60 1007.4
20260509073011 52 321 0.0 1.0 0.00 0.00 0.00 59 1007.4
20260509072507 52 321 0.0 0.0 0.00 0.00 0.00 60 1007.4
20260509072004 53 321 0.0 1.0 0.00 0.00 0.00 58 1007.4
20260509071506 53 321 0.0 1.0 0.00 0.00 0.00 59 1007.4
20260509071004 53 321 0.0 0.0 0.00 0.00 0.00 57 1007.4
20260509070507 53 321 0.0 0.0 0.00 0.00 0.00 57 1007.4
20260509070020 54 321 0.0 1.0 0.00 0.00 0.00 55 1007.5
20260509065511 54 321 0.0 1.0 0.00 0.00 0.00 54 1007.5
20260509065007 55 321 0.0 2.0 0.00 0.00 0.00 53 1007.5
20260509064528 55 321 0.0 2.0 0.00 0.00 0.00 53 1007.6
20260509064004 55 321 0.0 3.0 0.00 0.00 0.00 52 1007.6
20260509063506 56 321 0.0 3.0 0.00 0.00 0.00 51 1007.6
20260509063006 56 320 0.0 1.0 0.00 0.00 0.00 52 1007.7
20260509062508 56 320 0.0 1.0 0.00 0.00 0.00 52 1007.6
20260509062008 56 320 0.0 1.0 0.00 0.00 0.00 53 1007.7
20260509061532 56 320 0.0 1.0 0.00 0.00 0.00 53 1007.7
20260509061009 57 320 0.0 3.0 0.00 0.00 0.00 51 1007.6
20260509060507 57 320 0.0 3.0 0.00 0.00 0.00 50 1007.6
20260509060012 58 319 1.0 3.0 0.00 0.00 0.00 49 1007.7
20260509055507 58 309 1.0 3.0 0.00 0.00 0.00 49 1007.7
20260509055006 58 347 1.0 4.0 0.00 0.00 0.00 49 1007.7
20260509054511 59 348 1.0 4.0 0.00 0.00 0.00 49 1007.6
20260509054010 59 348 1.0 3.0 0.00 0.00 0.00 47 1007.6
20260509053507 59 340 2.0 4.0 0.00 0.00 0.00 46 1007.5
20260509053049 60 339 2.0 4.0 0.00 0.00 0.00 46 1007.5
20260509052507 60 330 2.0 5.0 0.00 0.00 0.00 46 1007.4
20260509052004 60 332 3.0 5.0 0.00 0.00 0.00 45 1007.4
20260509051527 60 322 3.0 5.0 0.00 0.00 0.00 45 1007.4
20260509051004 60 322 2.0 4.0 0.00 0.00 0.00 46 1007.4
20260509050507 59 292 1.0 3.0 0.00 0.00 0.00 46 1007.3
20260509050018 59 292 1.0 2.0 0.00 0.00 0.00 46 1007.3
20260509045505 59 292 1.0 2.0 0.00 0.00 0.00 47 1007.3
20260509045007 59 292 0.0 2.0 0.00 0.00 0.00 46 1007.2
20260509044524 59 292 1.0 2.0 0.00 0.00 0.00 46 1007.2
20260509044006 58 292 0.0 1.0 0.00 0.00 0.00 47 1007.2
20260509043509 58 292 0.0 1.0 0.00 0.00 0.00 50 1007.2
20260509043018 59 292 0.0 1.0 0.00 0.00 0.00 49 1007.2
20260509042512 59 292 0.0 1.0 0.00 0.00 0.00 50 1007.1
20260509042010 60 292 0.0 0.0 0.00 0.00 0.00 46 1007.2
20260509041517 60 292 0.0 0.0 0.00 0.00 0.00 45 1007.1
20260509041007 59 292 0.0 2.0 0.00 0.00 0.00 49 1007.1
20260509040511 59 292 0.0 2.0 0.00 0.00 0.00 48 1007.0
20260509040029 59 292 0.0 2.0 0.00 0.00 0.00 47 1007.0
20260509035502 59 292 0.0 2.0 0.00 0.00 0.00 48 1007.1
20260509035003 60 292 0.0 2.0 0.00 0.00 0.00 47 1007.1
20260509034506 60 291 0.0 0.0 0.00 0.00 0.00 46 1006.9
20260509034003 61 291 0.0 0.0 0.00 0.00 0.00 46 1006.9
20260509033506 62 291 0.0 0.0 0.00 0.00 0.00 40 1006.8
20260509033002 62 291 0.0 1.0 0.00 0.00 0.00 41 1006.8
20260509032503 62 291 0.0 1.0 0.00 0.00 0.00 45 1006.8
20260509032004 61 291 0.0 1.0 0.00 0.00 0.00 44 1006.8
20260509031505 61 292 0.0 1.0 0.00 0.00 0.00 47 1006.7
20260509031002 61 291 0.0 2.0 0.00 0.00 0.00 45 1006.7
20260509030509 61 290 0.0 2.0 0.00 0.00 0.00 47 1006.6
20260509030004 61 280 0.0 1.0 0.00 0.00 0.00 44 1006.5
20260509025503 62 280 0.0 1.0 0.00 0.00 0.00 41 1006.4
20260509025002 64 279 0.0 0.0 0.00 0.00 0.00 37 1006.3
20260509024504 64 279 0.0 0.0 0.00 0.00 0.00 36 1006.2
20260509024004 64 279 0.0 0.0 0.00 0.00 0.00 38 1006.2
20260509023504 64 279 0.0 0.0 0.00 0.00 0.00 35 1006.1
20260509023006 65 279 0.0 1.0 0.00 0.00 0.00 36 1006.0
20260509022505 66 279 0.0 1.0 0.00 0.00 0.00 35 1005.9
20260509022003 66 305 0.0 0.0 0.00 0.00 0.00 33 1005.9
20260509021508 67 305 0.0 0.0 0.00 0.00 0.00 33 1005.8
20260509021003 67 305 0.0 0.0 0.00 0.00 0.00 30 1005.7
20260509020504 67 305 0.0 0.0 0.00 0.00 0.00 30 1005.7
20260509020009 68 305 0.0 0.0 0.00 0.00 0.00 31 1005.6
20260509015504 68 305 0.0 1.0 0.00 0.00 0.00 32 1005.6
20260509015006 69 305 0.0 1.0 0.00 0.00 0.00 31 1005.6
20260509014508 69 305 0.0 1.0 0.00 0.00 0.00 31 1005.6
20260509014008 70 305 0.0 3.0 0.00 0.00 0.00 30 1005.6
20260509013502 70 305 1.0 4.0 0.00 0.00 0.00 29 1005.6
20260509013005 70 300 1.0 4.0 0.00 0.00 0.00 29 1005.5
20260509012502 71 296 1.0 3.0 0.00 0.00 0.00 29 1005.5
20260509012002 71 292 0.0 3.0 0.00 0.00 0.00 30 1005.5
20260509011509 71 337 0.0 3.0 0.00 0.00 0.00 30 1005.4
20260509011003 72 306 0.0 4.0 0.00 0.00 0.00 29 1005.4
20260509010503 72 297 1.0 5.0 0.00 0.00 0.00 30 1005.4
20260509010006 72 330 0.0 5.0 0.00 0.00 0.00 30 1005.3
20260509005505 72 306 2.0 4.0 0.00 0.00 0.00 31 1005.3
20260509005005 73 292 1.0 4.0 0.00 0.00 0.00 31 1005.3
20260509004501 73 326 1.0 7.0 0.00 0.00 0.00 32 1005.2
20260509004009 74 339 2.0 7.0 0.00 0.00 0.00 29 1005.2
20260509003507 74 302 2.0 8.0 0.00 0.00 0.00 30 1005.2
20260509003008 74 315 2.0 8.0 0.00 0.00 0.00 30 1005.2
20260509002505 74 329 4.0 8.0 0.00 0.00 0.00 31 1005.1
20260509002002 74 337 2.0 6.0 0.00 0.00 0.00 30 1005.0
20260509001510 73 296 1.0 4.0 0.00 0.00 0.00 35 1005.1
20260509001004 73 336 2.0 4.0 0.00 0.00 0.00 35 1005.1
20260509000509 72 346 0.0 3.0 0.00 0.00 0.00 38 1005.1
20260509000005 72 348 0.0 2.0 0.00 0.00 0.00 37 1005.2
20260508235502 72 348 0.0 3.0 0.00 0.00 0.00 39 1005.1
20260508235002 72 348 0.0 3.0 0.00 0.00 0.00 40 1005.2
20260508234506 71 349 0.0 3.0 0.00 0.00 0.00 43 1005.2
20260508234008 71 227 0.0 3.0 0.00 0.00 0.00 41 1005.2
20260508233505 71 315 0.0 2.0 0.00 0.00 0.00 41 1005.2
20260508233012 71 315 0.0 2.0 0.00 0.00 0.00 44 1005.3
20260508232504 72 315 0.0 5.0 0.00 0.00 0.00 38 1005.3
20260508232009 73 309 0.0 5.0 0.00 0.00 0.00 36 1005.4
20260508231510 73 338 0.0 3.0 0.00 0.00 0.00 34 1005.3
20260508231008 74 338 0.0 4.0 0.00 0.00 0.00 33 1005.3
20260508230502 74 320 2.0 4.0 0.00 0.00 0.00 32 1005.2
20260508230008 74 355 1.0 3.0 0.00 0.00 0.00 34 1005.2
20260508225512 75 336 0.0 4.0 0.00 0.00 0.00 32 1005.3
20260508225003 75 328 1.0 4.0 0.00 0.00 0.00 32 1005.3
20260508224512 75 319 1.0 10.0 0.00 0.00 0.00 34 1005.3
20260508224005 76 318 4.0 10.0 0.00 0.00 0.00 31 1005.4
20260508223505 76 298 2.0 7.0 0.00 0.00 0.00 33 1005.4
20260508223030 76 252 1.0 9.0 0.00 0.00 0.00 31 1005.4
20260508222507 75 244 2.0 9.0 0.00 0.00 0.00 30 1005.5
20260508222009 76 246 2.0 9.0 0.00 0.00 0.00 29 1005.5
20260508221507 77 234 2.0 7.0 0.00 0.00 0.00 31 1005.4
20260508221010 78 238 3.0 7.0 0.00 0.00 0.00 29 1005.5
20260508220506 77 132 0.0 8.0 0.00 0.00 0.00 27 1005.5
20260508220014 78 278 3.0 8.0 0.00 0.00 0.00 31 1005.6
20260508215503 78 87 1.0 8.0 0.00 0.00 0.00 30 1005.6
20260508215006 78 144 2.0 8.0 0.00 0.00 0.00 29 1005.7
20260508214516 78 257 0.0 5.0 0.00 0.00 0.00 27 1005.7
20260508214008 77 51 1.0 6.0 0.00 0.00 0.00 27 1005.7
20260508213505 79 253 2.0 6.0 0.00 0.00 0.00 29 1005.9
20260508213017 77 288 2.0 5.0 0.00 0.00 0.00 29 1005.9
20260508212506 77 137 1.0 7.0 0.00 0.00 0.00 27 1005.9
20260508212005 78 333 2.0 7.0 0.00 0.00 0.00 31 1005.9
20260508211513 76 167 0.0 7.0 0.00 0.00 0.00 28 1005.9
20260508211003 78 321 3.0 7.0 0.00 0.00 0.00 30 1006.0
20260508210508 77 347 2.0 7.0 0.00 0.00 0.00 36 1006.1
20260508210009 77 336 2.0 7.0 0.00 0.00 0.00 30 1006.1
20260508205502 75 340 1.0 9.0 0.00 0.00 0.00 32 1006.3
20260508205003 76 277 3.0 9.0 0.00 0.00 0.00 28 1006.3
20260508204508 77 278 0.0 11.0 0.00 0.00 0.00 35 1006.4
20260508204006 78 323 3.0 11.0 0.00 0.00 0.00 30 1006.5
20260508203503 77 313 0.0 8.0 0.00 0.00 0.00 34 1006.5
20260508203006 78 293 3.0 8.0 0.00 0.00 0.00 29 1006.6
20260508202503 77 324 3.0 8.0 0.00 0.00 0.00 26 1006.7
20260508202006 78 297 2.0 9.0 0.00 0.00 0.00 28 1006.7
20260508201505 78 275 1.0 9.0 0.00 0.00 0.00 28 1006.8
20260508201008 78 324 3.0 9.0 0.00 0.00 0.00 32 1006.9
20260508200504 76 331 1.0 5.0 0.00 0.00 0.00 31 1006.9
20260508200016 76 344 1.0 5.0 0.00 0.00 0.00 29 1007.2
20260508195508 75 206 1.0 5.0 0.00 0.00 0.00 29 1007.2
20260508195002 75 212 0.0 2.0 0.00 0.00 0.00 32 1007.2
20260508194518 74 182 0.0 4.0 0.00 0.00 0.00 30 1007.3
20260508194002 74 275 1.0 4.0 0.00 0.00 0.00 27 1007.3
20260508193506 75 207 0.0 7.0 0.00 0.00 0.00 31 1007.3
20260508193018 74 154 1.0 9.0 0.00 0.00 0.00 28 1007.3
20260508192503 75 196 1.0 9.0 0.00 0.00 0.00 30 1007.3
20260508192006 76 246 3.0 7.0 0.00 0.00 0.00 28 1007.5
20260508191516 76 133 1.0 6.0 0.00 0.00 0.00 31 1007.5
20260508191002 76 281 2.0 6.0 0.00 0.00 0.00 26 1007.6
20260508190505 75 88 0.0 5.0 0.00 0.00 0.00 32 1007.6
20260508190009 75 325 2.0 8.0 0.00 0.00 0.00 31 1007.7
20260508185506 75 292 3.0 8.0 0.00 0.00 0.00 27 1007.9
20260508185009 76 355 3.0 8.0 0.00 0.00 0.00 30 1007.9
20260508184510 75 273 1.0 6.0 0.00 0.00 0.00 31 1007.9
20260508184007 75 57 1.0 7.0 0.00 0.00 0.00 28 1008.0
20260508183511 75 74 2.0 7.0 0.00 0.00 0.00 29 1008.1
20260508183007 75 43 1.0 4.0 0.00 0.00 0.00 29 1008.1
20260508182508 75 274 1.0 6.0 0.00 0.00 0.00 27 1008.2
20260508182006 75 320 2.0 7.0 0.00 0.00 0.00 30 1008.2
20260508181523 73 154 0.0 7.0 0.00 0.00 0.00 29 1008.2
20260508181003 73 151 1.0 5.0 0.00 0.00 0.00 27 1008.4
20260508180507 73 355 1.0 4.0 0.00 0.00 0.00 28 1008.4
20260508180010 73 126 1.0 4.0 0.00 0.00 0.00 33 1008.4
20260508175506 73 95 1.0 7.0 0.00 0.00 0.00 31 1008.5